Theta_e
321 323 322 320 322 321 321 323 323 327 334 342 346 343 341 344 345 344 344 342 343 342 340 338 337 335 334 333 333 335 335 335 335 334 333 334 336 338 340 342 344 345 343 343 346 347 348 350 351 351 351 350 350 350 349 349 349 349 349 350 350 350 349 349 349 348 349 349 348 347 346 345 346 345 341 336 335 338 340 342 342 342 343 344 346 346 345
321 319 320 319 322 324 325 326 324 328 337 343 343 342 342 345 344 342 342 343 342 340 338 337 335 333 333 333 334 334 334 334 333 333 332 332 333 335 337 339 342 343 342 343 345 346 347 348 349 349 350 350 350 350 350 350 350 350 349 348 348 348 349 350 351 351 351 351 351 351 350 349 349 350 348 343 339 339 342 344 345 345 344 344 345 346 347
321 320 322 320 322 327 328 328 326 326 332 340 342 342 342 343 342 340 341 342 341 337 335 335 334 333 333 333 333 333 332 332 332 331 331 331 332 332 333 334 337 339 340 340 342 344 345 347 348 349 349 349 350 350 350 350 351 351 351 350 349 350 351 352 354 354 354 353 352 353 353 352 350 351 351 350 347 344 344 345 347 348 347 345 345 345 347
322 319 324 323 323 326 328 329 327 324 328 336 340 340 342 343 341 340 341 343 340 335 333 333 332 332 332 332 331 331 330 330 330 329 328 329 329 330 331 332 334 336 337 337 338 340 342 343 346 348 349 349 349 350 350 350 350 350 351 351 350 351 351 352 353 354 355 354 353 353 353 352 351 351 352 353 353 351 348 346 347 349 348 347 346 346 346
324 320 326 328 326 328 331 329 323 321 329 339 341 340 340 340 340 341 343 343 338 333 333 333 333 331 331 330 330 329 329 328 327 326 326 326 327 328 330 331 332 334 336 338 339 340 340 341 342 344 347 348 348 348 349 349 349 349 350 350 350 350 350 350 350 352 353 352 352 352 352 352 352 352 352 353 353 353 352 351 350 350 350 348 347 347 347
324 325 331 332 330 328 328 327 324 326 334 340 340 339 338 339 341 340 340 338 334 333 334 333 332 331 330 330 328 328 328 326 325 326 325 325 325 325 327 328 330 332 334 337 338 338 338 339 339 339 341 343 344 345 345 346 347 347 347 348 348 349 349 350 350 351 351 351 351 351 352 352 352 352 352 352 352 352 352 352 352 352 351 348 347 347 348
321 328 335 333 330 328 328 329 328 329 332 334 335 335 334 336 339 337 336 335 332 331 331 330 330 330 329 328 328 327 327 326 326 326 325 324 323 323 324 326 327 328 329 330 333 333 332 331 331 333 335 339 340 341 341 343 343 343 344 344 345 345 346 348 349 350 350 351 352 352 352 352 352 352 351 351 351 351 350 350 350 350 350 348 347 347 348
319 325 333 334 332 330 334 334 327 325 330 335 341 341 335 334 337 335 333 331 327 326 327 327 328 328 327 327 327 327 327 326 325 325 324 323 323 323 323 323 325 326 325 325 328 331 330 327 325 326 329 333 337 339 339 339 339 339 341 342 342 342 344 345 345 345 346 348 349 350 351 352 351 351 351 351 351 351 351 351 351 351 350 349 347 347 347
323 326 329 330 329 327 332 334 325 321 323 328 340 345 336 331 333 331 331 331 327 324 324 325 326 327 326 326 325 325 326 325 324 324 323 323 323 323 323 323 323 323 323 324 326 328 331 330 326 324 324 326 330 334 336 337 337 338 340 340 339 339 340 341 341 342 343 344 345 346 347 349 349 348 349 350 350 351 351 351 351 351 351 351 350 349 349
329 334 331 327 326 326 331 335 327 320 317 319 331 344 339 330 329 329 330 331 328 324 324 324 324 325 326 326 325 324 324 324 324 323 322 323 323 322 322 323 323 323 323 323 324 326 329 330 328 325 324 322 322 324 326 326 328 330 334 337 337 335 335 335 335 338 341 342 342 343 343 344 345 345 345 346 347 348 349 350 349 349 349 350 350 351 351
328 333 330 327 327 327 331 335 328 318 315 317 327 343 342 331 327 328 328 328 327 325 325 324 324 326 328 327 325 323 324 324 323 323 322 322 322 322 322 322 322 323 323 323 323 324 326 327 327 326 325 323 320 318 317 316 316 317 321 326 329 330 329 329 328 330 334 335 334 334 336 339 340 341 342 343 345 345 346 347 347 347 347 348 349 349 350
329 330 324 322 327 327 328 331 326 317 315 318 327 339 339 331 328 328 328 327 327 326 325 325 327 329 329 326 323 323 323 323 322 322 322 322 322 322 322 321 321 322 322 322 322 322 322 323 324 323 324 323 320 317 316 316 314 314 314 315 318 320 321 323 323 323 325 326 325 324 327 330 332 333 335 337 340 343 344 344 344 344 345 346 347 347 347
327 325 316 316 326 330 326 325 322 316 316 320 327 332 331 327 328 328 327 327 327 326 325 326 328 329 326 324 323 323 323 322 321 321 321 321 322 321 321 321 321 321 321 321 321 321 321 321 321 320 320 320 318 316 315 315 315 314 313 313 313 314 315 317 318 317 318 318 318 318 321 324 325 327 328 329 332 335 337 339 341 343 343 342 343 344 346
319 324 321 318 324 328 322 319 319 317 316 320 324 325 324 326 328 328 327 328 327 326 327 326 327 327 324 322 323 323 322 321 320 320 320 320 320 320 320 320 320 320 319 319 318 317 317 318 318 318 317 316 315 314 313 313 314 313 312 312 313 313 314 313 313 313 313 314 314 315 317 319 321 323 324 325 327 328 328 329 333 336 337 336 336 338 341
319 326 324 319 323 324 320 320 322 320 318 321 323 322 323 327 329 328 327 328 327 326 326 325 325 324 322 321 322 322 322 321 320 320 320 319 319 319 319 319 319 318 317 316 315 315 316 316 316 315 314 314 313 312 312 312 312 311 311 311 312 313 313 312 311 311 312 312 313 314 314 315 316 317 318 320 321 321 321 324 329 334 336 335 335 335 336
323 327 325 321 323 323 321 321 322 321 321 322 322 323 325 327 328 328 328 327 326 326 325 324 323 322 320 321 322 321 320 320 320 320 319 319 318 318 318 318 318 317 316 314 314 315 315 315 315 314 314 313 312 312 312 311 310 309 309 309 310 311 310 310 310 310 311 312 312 313 313 313 313 314 315 317 318 319 320 323 328 334 338 339 341 341 341
321 325 329 325 320 320 322 322 321 321 321 321 323 326 327 326 327 327 327 326 325 325 325 323 322 320 320 320 320 320 320 320 319 319 319 318 318 318 318 317 317 316 315 313 313 314 314 314 314 313 312 310 309 309 309 310 309 308 308 308 309 309 309 308 309 310 311 312 313 314 315 316 316 317 318 320 322 324 325 325 326 331 337 341 343 344 343
317 319 322 321 318 320 322 322 321 321 320 320 322 324 326 326 326 326 326 326 325 325 325 324 321 320 320 320 319 320 319 319 319 319 319 318 318 318 317 317 316 315 314 312 312 314 315 313 312 311 309 307 306 306 307 307 308 307 307 307 308 308 307 307 308 308 310 311 313 315 317 318 319 319 320 321 323 326 328 329 329 332 337 341 342 342 341
320 318 319 319 319 320 320 319 320 320 319 319 320 321 322 324 324 324 325 326 326 325 324 323 321 320 319 319 319 319 319 319 319 318 318 318 318 317 317 316 315 314 312 311 311 313 313 311 309 308 307 306 306 306 305 306 306 306 306 306 306 306 306 306 307 307 308 309 311 313 316 317 319 320 321 321 322 324 326 329 331 333 335 337 338 339 340
322 318 318 319 319 319 318 318 318 318 318 319 319 319 320 320 321 323 324 324 325 324 323 323 322 320 319 319 319 319 319 319 319 318 318 318 317 317 316 315 313 311 310 310 310 310 310 309 308 308 308 307 308 308 308 307 307 307 307 307 306 306 306 306 306 306 307 307 308 310 312 315 317 319 320 321 322 322 323 325 327 330 331 332 333 334 335
323 319 318 319 320 320 319 319 318 317 317 318 318 318 319 319 320 322 323 323 323 322 322 322 322 320 319 319 319 319 318 318 318 318 318 318 317 317 315 314 312 310 309 309 309 309 309 310 310 310 310 309 310 310 310 310 309 308 308 307 306 306 306 305 305 306 306 306 306 307 308 310 312 314 315 317 318 319 319 320 321 323 325 326 328 328 329
327 324 321 320 322 322 320 319 319 318 317 317 317 318 318 318 319 320 320 320 320 320 320 320 320 319 319 319 319 319 318 318 318 318 318 318 317 316 315 313 311 310 310 309 309 309 310 311 311 310 310 309 309 309 309 309 309 308 308 306 305 305 306 305 305 305 305 305 305 306 306 306 307 308 309 310 312 312 313 314 314 315 316 317 319 321 323
327 324 320 319 321 322 320 319 320 319 318 318 318 317 318 318 318 318 319 318 318 318 318 319 319 319 318 318 318 318 318 318 318 318 318 317 316 315 313 311 310 310 310 309 308 309 311 311 311 310 309 308 308 309 309 309 309 309 309 308 307 307 307 307 307 306 306 306 305 305 305 305 305 305 305 307 308 309 309 309 309 309 310 310 311 312 314
321 320 319 319 319 320 320 320 320 319 319 319 318 318 318 318 317 317 317 318 318 318 318 318 318 318 317 317 317 317 318 318 318 318 317 316 314 313 311 310 310 310 309 309 309 310 311 311 311 310 309 309 309 310 311 311 311 311 311 310 310 309 308 308 307 307 307 307 307 307 306 306 306 305 305 305 307 308 308 308 308 308 308 309 309 309 309
320 319 319 319 319 319 320 320 319 319 319 319 318 318 318 318 318 317 317 317 317 317 317 317 317 316 316 316 316 316 317 317 317 317 316 314 312 311 311 311 311 310 310 310 310 311 311 311 310 309 309 309 310 311 312 312 312 312 311 311 311 310 309 309 308 308 308 308 309 309 308 307 307 306 306 306 305 306 307 308 308 308 308 308 309 309 309
321 320 319 319 319 319 320 320 319 319 319 318 318 318 317 318 318 318 318 318 317 316 316 316 316 316 315 315 315 316 316 316 316 315 314 313 312 312 312 312 312 311 311 311 311 311 311 310 310 309 309 310 310 311 312 312 311 311 310 310 310 309 309 308 308 308 308 309 309 309 309 309 309 308 308 308 308 307 307 307 307 308 308 308 309 309 309
320 320 320 320 319 319 319 319 319 319 319 319 318 318 318 318 318 318 318 319 318 317 316 316 316 316 316 315 315 315 315 315 315 315 314 313 313 313 313 313 312 312 311 311 310 311 310 310 310 310 310 310 310 310 311 310 310 310 310 310 309 308 308 308 308 308 308 308 308 309 309 310 310 310 310 311 310 310 310 309 309 309 309 309 309 309 309
320 319 318 318 318 318 318 318 318 318 318 318 318 318 318 318 318 318 318 318 318 318 317 316 316 316 316 316 315 315 316 315 315 314 314 314 313 313 313 313 312 312 311 311 311 311 311 310 310 309 309 310 310 310 310 310 310 310 309 309 308 308 307 307 307 307 307 307 307 307 308 308 309 309 310 311 311 311 311 311 310 310 310 310 310 310 310
318 318 318 317 317 317 317 317 317 317 317 317 317 317 317 317 317 317 317 317 318 318 318 317 316 316 316 316 316 315 315 315 315 315 314 314 314 313 313 312 312 312 311 311 311 311 311 310 309 309 309 309 309 309 309 309 309 309 308 308 307 307 307 307 307 307 307 307 307 307 307 307 308 308 309 309 310 311 311 311 311 311 311 311 311 311 311
317 317 318 317 316 316 316 316 316 317 316 316 316 316 317 317 317 317 317 317 318 318 318 317 317 316 316 316 316 316 316 316 315 315 314 314 314 314 313 312 312 312 312 311 311 311 310 310 309 309 309 308 308 308 308 308 308 308 307 307 307 306 306 306 306 306 307 307 307 307 307 307 307 307 308 308 309 309 310 310 311 311 312 312 312 312 312
316 317 317 316 316 316 316 316 316 316 315 316 316 315 316 316 317 317 317 317 317 317 317 317 317 317 316 316 316 316 316 315 315 315 315 314 314 313 313 312 312 312 312 311 311 311 310 309 309 308 308 308 308 308 308 308 308 307 306 306 306 306 306 306 306 306 306 306 306 306 306 306 307 307 307 307 308 308 309 309 310 311 311 312 312 312 312
316 316 316 315 315 315 315 314 314 315 315 316 316 315 315 315 315 315 315 315 316 316 317 317 317 317 317 317 316 316 316 315 315 315 314 314 313 313 312 312 312 311 311 311 310 310 309 309 309 309 308 308 308 307 307 307 307 307 306 306 306 306 306 306 306 305 305 305 305 305 305 306 306 306 307 307 307 307 308 308 308 309 310 311 311 311 312
314 314 314 314 313 313 313 312 312 312 313 313 313 314 314 315 314 314 314 314 314 315 315 316 317 317 317 317 317 316 316 315 314 314 314 313 313 312 312 311 311 310 310 310 310 309 309 309 309 309 308 308 307 306 306 306 306 306 306 305 306 305 305 305 305 305 304 304 304 304 304 305 305 305 306 306 306 306 306 306 307 308 308 309 310 311 311
313 313 313 313 312 312 312 312 312 312 311 311 311 311 312 312 313 313 313 313 313 313 314 315 316 316 316 316 316 316 316 315 313 313 313 312 312 311 311 310 310 310 310 309 309 309 309 308 308 307 307 306 306 305 305 305 305 305 305 305 305 305 305 305 305 304 304 304 304 304 304 304 304 304 305 305 306 306 306 306 306 307 307 308 309 310 310
312 312 312 312 312 312 312 311 311 311 311 311 311 310 310 310 311 311 312 312 312 312 313 315 316 316 316 316 316 315 315 315 313 312 311 311 311 311 310 310 310 309 309 309 308 308 307 306 306 306 305 305 304 304 304 304 304 304 304 304 304 305 305 305 305 305 304 304 304 304 304 304 305 306 306 306 306 306 306 306 306 306 306 307 307 308 308
311 311 311 311 311 311 310 310 310 310 310 310 310 310 310 310 310 310 311 312 312 312 313 314 315 316 316 315 315 315 314 313 313 312 311 310 310 310 310 310 309 309 308 308 307 306 306 305 305 305 304 304 303 303 302 302 302 302 303 303 304 304 304 304 304 304 304 304 304 304 304 305 306 306 306 306 306 306 306 306 306 306 306 306 306 306 306
310 309 309 309 309 309 309 309 309 309 309 310 310 309 309 310 309 310 310 311 313 313 314 314 315 315 315 315 314 314 312 311 311 311 310 310 310 310 309 309 308 308 307 306 306 305 305 304 304 304 303 303 302 302 301 301 301 301 301 302 303 303 304 303 303 303 303 303 303 304 305 305 305 305 304 305 305 305 305 305 305 305 305 305 305 305 305
309 309 309 309 309 309 309 309 309 309 309 309 309 309 309 309 309 309 310 310 311 313 314 315 315 315 315 314 313 312 311 311 310 310 310 309 309 309 308 308 307 306 305 305 305 304 304 303 303 303 302 302 301 301 300 300 300 301 301 302 302 302 302 302 302 302 303 303 303 304 304 304 304 303 303 303 303 304 304 304 304 304 304 304 304 304 305
308 308 308 308 308 308 308 308 308 308 308 308 308 308 308 308 309 309 310 310 310 311 313 315 315 314 314 313 312 311 311 310 310 310 309 309 308 308 307 306 306 305 305 304 304 303 303 302 302 301 301 300 300 300 299 299 300 301 301 301 301 301 301 301 301 302 302 302 302 302 302 302 302 302 302 302 302 302 302 302 302 303 303 303 304 304 304
308 308 308 308 308 308 308 307 307 307 307 307 307 308 308 308 308 309 309 310 310 311 313 314 314 313 313 312 312 311 310 309 309 309 308 308 307 307 306 305 305 304 304 303 303 302 302 301 300 300 300 300 299 299 298 299 300 300 301 301 301 300 300 300 301 301 301 301 300 300 300 300 300 300 301 301 300 300 301 301 301 302 302 302 303 303 303
307 308 308 308 308 308 307 307 307 306 306 306 306 306 307 308 308 308 309 309 310 311 312 313 313 313 312 312 311 310 309 309 308 307 307 307 306 306 305 305 304 303 302 302 301 300 300 299 299 299 300 299 299 298 298 299 300 300 301 301 301 300 299 299 300 299 299 299 299 299 299 299 299 299 299 299 299 299 300 300 300 300 300 301 301 301 301
307 308 308 307 307 307 307 307 306 306 306 306 305 305 305 306 307 308 309 310 311 311 312 312 312 312 311 311 310 309 308 307 307 306 306 306 305 305 304 304 303 301 300 300 299 299 299 299 299 299 299 298 298 298 298 299 300 300 300 300 300 299 298 298 298 298 298 298 298 299 299 298 298 298 298 298 298 298 299 299 299 299 299 299 299 299 299
306 307 307 307 307 307 306 306 306 306 306 306 306 305 305 306 307 308 308 310 311 311 311 311 311 310 309 309 308 307 307 306 305 305 304 304 304 304 303 303 301 300 299 299 299 299 299 298 298 297 297 297 297 297 298 298 299 300 300 299 299 299 298 298 298 298 298 298 298 298 298 297 297 297 297 297 298 298 298 298 298 298 298 298 298 298 298
306 306 306 306 306 306 306 306 306 306 306 306 306 306 307 308 308 309 309 310 311 311 311 310 309 308 308 307 307 307 306 306 305 304 303 303 303 303 303 302 301 300 300 299 299 298 298 298 297 297 296 296 296 297 297 298 298 299 299 298 299 298 298 298 298 297 297 297 297 297 297 296 296 297 297 297 297 297 297 297 297 296 296 296 297 297 297
306 306 306 306 306 306 306 306 306 306 306 306 306 307 307 308 309 309 309 310 310 310 309 308 308 307 307 306 307 307 306 305 304 304 303 302 303 303 302 302 301 300 300 300 299 299 298 298 297 296 296 296 296 296 297 297 297 297 297 297 297 297 297 297 296 296 296 296 296 296 296 296 296 296 296 296 296 296 296 296 295 295 295 296 296 296 296
306 306 306 306 306 306 306 306 306 307 306 306 306 306 306 306 307 308 309 310 310 309 307 307 307 307 306 306 305 305 304 303 303 303 302 302 302 302 302 301 300 300 300 300 300 299 299 298 297 297 296 296 296 296 296 296 296 296 296 296 296 296 295 295 295 295 295 295 295 295 295 295 295 295 295 295 295 295 295 295 294 295 295 295 295 295 295
306 306 306 306 307 307 307 307 307 307 306 306 306 306 306 306 307 308 309 309 309 308 306 306 306 306 306 305 305 304 303 302 303 303 303 302 302 301 301 301 300 300 300 300 300 299 299 298 297 297 297 296 296 295 295 296 296 296 296 295 295 295 295 295 295 295 295 295 294 294 294 294 294 294 294 294 294 294 294 294 294 294 294 294 294 294 294
306 306 306 306 307 307 307 307 307 306 306 306 307 307 307 308 308 308 307 307 307 306 305 305 305 305 305 304 303 303 302 302 302 303 303 302 302 301 301 301 301 301 300 300 300 299 299 298 297 297 297 297 296 295 295 295 295 295 295 295 295 295 295 295 295 295 294 294 294 294 294 294 294 294 294 294 294 293 293 293 293 293 293 293 293 293 293
306 306 305 306 307 307 307 307 307 307 307 307 307 307 307 308 307 306 306 306 305 305 304 304 304 304 304 303 303 303 303 302 302 303 302 302 301 301 301 301 301 301 301 300 300 299 299 299 298 298 297 297 296 296 295 295 295 295 295 295 295 295 295 294 294 294 294 294 294 294 294 294 293 293 293 293 293 293 292 292 292 292 292 292 292 292 292
305 305 306 306 306 307 307 307 307 308 308 308 307 307 307 307 306 305 304 304 304 303 303 302 303 303 303 303 303 303 303 303 303 303 302 301 301 301 301 301 301 301 301 300 300 300 299 299 299 298 298 297 296 296 296 295 295 294 294 294 295 295 295 294 294 294 294 294 294 293 293 293 293 293 293 293 293 293 292 292 292 292 292 292 292 292 292
305 305 306 307 307 307 307 307 307 307 307 306 306 306 306 306 305 304 303 303 302 302 302 303 303 303 303 303 303 304 303 303 303 303 302 302 302 302 302 301 301 301 301 301 300 300 300 299 299 298 298 297 296 296 297 296 295 295 294 294 294 294 294 294 294 294 294 294 294 293 293 293 293 293 292 292 292 292 292 292 293 293 293 292 292 291 291
305 305 306 307 307 307 306 306 306 306 306 306 305 305 304 304 303 303 302 302 302 302 302 303 303 303 303 303 303 303 303 303 302 302 302 302 302 302 302 301 301 301 301 301 300 300 300 300 299 298 298 298 297 297 297 297 296 295 295 295 294 294 295 294 294 294 294 294 294 293 293 293 292 292 292 291 292 292 292 292 293 293 292 292 291 291 291
Wind_Speed
4 4 6 6 2 2 3 5 6 7 7 4 5 3 2 5 5 4 8 11 10 10 10 8 7 7 8 11 14 16 18 19 18 18 18 17 16 15 14 12 10 8 5 7 7 8 12 18 22 25 27 30 32 31 31 31 31 31 30 31 32 31 30 30 28 26 26 26 25 24 23 22 21 20 20 21 22 21 20 19 18 17 16 15 15 15 16
6 8 7 5 4 5 5 7 7 7 6 6 8 5 4 6 5 6 12 10 5 4 8 8 8 11 14 16 18 18 19 18 18 18 19 17 16 16 15 13 12 11 9 11 12 10 10 16 18 18 20 22 23 24 24 26 28 28 29 31 32 31 31 32 31 30 29 28 27 25 24 23 22 21 21 21 21 22 22 21 20 19 18 17 17 16 17
5 9 9 7 5 7 7 8 10 10 8 6 7 4 4 8 8 9 13 11 5 5 10 13 14 16 18 18 18 18 17 17 18 18 17 17 17 17 16 14 13 12 10 10 11 10 9 11 14 16 17 19 20 20 21 23 24 23 25 29 31 31 31 31 31 32 31 29 28 27 25 24 23 22 21 20 21 22 23 23 22 21 21 20 19 19 18
2 5 7 7 5 7 8 9 12 13 9 4 4 2 1 6 10 10 11 8 4 6 12 17 18 19 19 17 18 19 17 16 18 18 17 16 17 18 18 17 15 13 11 9 10 10 10 10 12 13 14 16 17 18 19 18 18 19 21 24 26 26 27 27 29 31 30 29 28 27 25 24 23 22 22 21 20 21 23 24 24 24 23 23 22 21 21
0 2 3 3 4 6 5 6 8 9 7 2 4 5 5 4 10 9 6 5 6 9 13 14 13 15 16 17 19 21 20 19 19 19 18 17 16 18 19 19 18 17 15 13 13 12 11 11 11 11 11 11 12 14 16 14 14 16 18 19 20 21 20 20 22 25 27 26 25 25 25 24 23 23 22 22 22 22 23 24 24 25 25 25 23 23 23
1 3 3 4 5 3 2 5 6 4 1 5 7 6 7 5 3 5 5 6 8 10 12 12 12 14 17 20 22 23 23 23 21 18 17 18 17 17 18 18 18 19 18 16 15 14 13 12 10 9 8 8 7 8 10 11 11 13 13 15 15 16 16 16 16 18 19 19 20 21 22 23 24 25 25 25 25 25 25 25 26 27 28 26 24 22 22
1 1 5 6 1 2 4 6 6 3 4 9 11 9 9 8 5 8 11 8 8 10 12 16 20 20 21 23 24 24 23 23 22 20 17 18 19 19 18 19 18 18 17 16 15 16 16 15 13 12 11 9 7 6 6 7 8 8 7 8 9 10 12 13 14 15 15 16 17 18 18 19 20 22 23 24 24 24 24 24 25 26 27 27 25 23 22
1 2 4 3 4 5 4 6 5 3 3 6 8 8 8 9 7 6 9 8 8 14 17 19 23 24 24 23 23 23 22 21 23 23 20 20 20 20 19 19 18 17 16 15 15 15 16 16 16 15 14 12 11 10 10 10 10 9 7 6 6 7 9 9 8 10 11 13 14 15 16 16 16 17 18 18 19 19 19 18 18 19 22 25 26 26 25
2 3 2 1 1 2 4 4 3 2 4 3 2 3 3 7 6 6 10 10 10 15 19 21 25 27 23 17 15 19 21 21 22 22 21 21 20 19 19 19 19 18 16 15 14 13 14 14 15 15 14 13 13 12 11 10 10 10 10 9 9 8 7 6 5 5 5 6 8 10 11 13 12 12 13 14 15 16 16 15 13 13 16 19 21 23 23
2 4 2 2 2 1 3 4 5 5 7 6 2 4 2 3 2 7 11 12 12 16 19 22 25 24 16 6 7 17 21 21 22 21 20 21 21 20 19 19 19 19 17 15 14 13 13 13 12 11 11 11 12 12 12 11 10 9 9 9 9 9 8 6 4 4 4 4 5 7 8 9 8 8 9 10 12 13 15 16 15 14 14 16 18 18 18
2 4 3 2 3 3 3 6 8 11 11 6 2 5 3 3 6 9 13 15 14 16 20 20 16 12 7 3 9 18 23 22 22 21 21 21 22 20 18 18 18 18 16 15 13 12 12 12 11 8 6 7 8 10 10 10 9 9 10 8 7 7 7 6 5 5 5 4 4 5 6 7 5 5 6 7 8 10 13 15 16 14 13 16 19 18 15
2 3 2 1 2 1 3 5 8 13 13 5 5 3 3 7 12 14 17 21 21 22 25 23 13 4 5 10 16 23 26 23 21 21 21 22 21 20 18 17 16 15 14 13 12 10 10 11 9 6 3 2 2 4 5 5 6 8 8 7 6 6 5 5 4 4 5 5 4 5 4 4 3 2 2 3 4 7 10 12 13 14 13 15 18 18 16
2 3 2 1 2 3 3 5 10 12 9 5 4 2 5 13 20 19 18 24 28 29 30 26 14 7 9 19 26 28 27 24 23 22 21 21 19 18 16 15 14 12 11 10 10 9 9 8 6 4 3 3 2 2 1 1 2 5 6 5 5 5 4 4 4 4 4 4 4 5 5 4 3 2 2 1 1 3 4 6 9 13 14 14 15 17 16
1 2 3 1 3 3 3 6 9 7 3 1 3 3 4 16 26 22 17 21 25 25 26 22 12 7 14 25 30 30 28 26 25 23 22 20 19 16 15 13 12 10 9 7 7 7 7 7 6 5 4 4 4 4 3 3 3 2 2 3 4 5 5 5 4 4 4 4 4 4 5 4 4 3 3 3 3 3 3 2 3 5 9 10 10 13 14
1 2 3 2 2 3 5 8 6 3 1 3 6 6 6 14 24 22 18 20 20 19 19 17 14 17 25 30 32 31 29 27 25 23 21 19 18 17 15 13 11 9 7 6 6 6 6 6 5 5 5 4 4 5 5 5 4 3 2 3 3 3 4 4 5 5 5 5 5 5 5 5 5 5 4 3 4 5 5 6 7 6 6 5 4 5 7
2 2 1 2 4 4 8 6 0 2 2 3 6 8 10 14 20 21 20 19 18 18 17 17 19 25 30 32 32 32 29 26 25 23 21 19 18 17 15 13 11 9 7 6 7 7 6 6 6 5 5 5 5 5 5 5 5 4 3 3 3 3 4 4 4 4 5 5 6 6 6 6 6 5 4 4 4 5 6 8 8 7 6 5 4 3 3
2 3 4 4 3 6 7 4 6 7 7 6 5 7 13 17 19 21 23 22 20 20 19 20 24 29 31 32 32 30 28 26 24 23 21 19 17 15 13 12 11 8 7 7 8 8 8 7 7 7 6 6 6 6 6 6 5 4 4 3 3 4 5 5 4 5 5 5 5 6 6 6 6 5 5 5 5 5 6 7 9 9 8 8 8 8 7
1 1 2 3 5 7 6 6 7 8 9 8 5 6 11 14 16 20 23 24 23 22 22 24 29 31 31 31 30 29 27 25 23 22 20 17 14 12 11 10 9 9 8 8 9 9 9 9 8 8 8 8 7 7 7 7 7 7 6 5 4 4 5 5 6 6 6 6 6 6 6 6 6 5 5 5 5 5 5 6 8 10 10 10 10 11 10
1 1 4 5 6 8 7 7 8 8 9 8 5 5 6 8 10 14 19 22 22 22 24 27 30 31 31 30 29 28 26 24 22 20 18 15 13 11 9 9 8 7 8 9 10 9 9 8 8 9 9 9 9 9 9 9 9 9 8 7 7 6 6 7 7 7 8 8 8 8 8 8 8 7 7 7 7 6 6 7 7 9 9 10 11 12 12
2 1 3 3 9 9 8 8 7 6 7 8 6 5 5 5 4 8 14 19 22 26 28 28 28 30 31 31 30 28 25 23 21 18 16 15 13 10 9 8 7 7 8 9 9 8 8 8 8 9 10 10 11 11 11 12 12 11 11 10 9 9 9 9 9 9 9 10 10 10 10 10 10 10 9 9 9 9 9 9 9 9 10 10 11 12 13
1 2 1 4 7 7 7 8 7 4 5 9 10 10 8 6 5 5 10 15 20 25 28 27 28 31 32 30 28 26 23 21 19 17 16 14 12 10 8 6 7 7 7 7 6 6 6 6 6 7 8 9 11 11 12 13 13 13 12 12 11 11 11 10 10 11 11 11 11 11 11 11 10 10 10 11 10 10 10 10 11 12 12 13 14 15 15
2 2 4 6 3 1 3 6 8 6 4 6 11 13 13 12 10 9 11 14 17 19 20 22 25 28 27 24 22 21 19 18 18 17 16 14 12 10 9 9 8 8 7 6 5 5 5 5 4 4 5 7 9 10 11 11 12 12 12 11 11 11 11 11 11 11 11 12 12 12 12 12 11 10 10 11 11 11 11 11 11 12 13 14 16 18 18
3 4 7 8 4 3 5 5 6 6 5 4 7 9 11 14 15 15 15 15 16 16 17 18 19 20 20 20 20 19 19 18 18 17 16 14 11 10 10 11 10 8 7 7 7 6 6 5 5 6 5 5 6 7 8 9 10 10 10 10 10 10 10 11 11 12 12 12 12 13 13 13 13 12 12 11 11 12 13 13 13 13 14 15 16 18 20
2 2 6 7 3 4 5 4 2 1 1 2 2 3 4 8 13 16 17 17 17 17 17 18 17 16 17 18 19 20 20 20 19 17 14 12 11 11 11 12 10 9 8 8 8 8 7 6 7 7 5 5 6 6 7 7 8 9 10 11 11 11 12 12 12 12 12 13 13 13 14 14 14 14 14 13 13 12 12 13 14 15 14 15 15 16 18
3 3 5 5 3 4 5 5 5 5 5 6 6 4 3 4 7 11 15 17 18 19 19 19 19 18 18 18 19 20 21 20 19 17 15 14 13 12 12 11 9 8 8 9 9 9 8 8 9 9 7 6 7 8 7 7 8 9 10 11 12 13 14 14 13 12 13 13 14 14 14 14 14 14 15 15 15 15 14 14 13 13 13 13 13 14 14
3 3 4 4 4 5 6 7 7 8 8 10 11 12 11 9 7 8 10 12 15 18 21 22 21 20 20 20 20 21 22 21 20 19 18 17 15 14 12 11 9 8 9 10 10 10 10 11 12 12 10 9 9 9 9 9 9 9 10 12 13 14 15 15 15 13 13 14 15 15 15 15 15 14 14 15 16 17 17 17 15 14 12 12 12 13 13
3 3 4 5 5 6 6 7 7 7 9 10 10 12 13 14 14 13 12 12 12 14 18 23 24 23 22 22 22 22 22 22 22 21 20 18 16 14 13 11 10 9 9 10 10 10 11 12 12 12 12 11 11 11 11 12 12 11 11 12 14 14 15 16 16 15 14 15 16 16 17 16 16 15 15 15 15 16 17 18 18 17 15 14 13 13 13
4 4 5 5 6 6 6 6 7 7 8 9 10 11 12 14 15 16 16 16 15 14 15 19 24 27 27 25 24 24 24 23 23 22 21 19 16 15 14 13 12 11 10 10 10 12 12 12 12 12 12 13 13 13 14 14 14 13 14 15 15 15 15 16 16 16 15 15 16 17 17 18 18 17 17 17 17 17 17 18 18 19 18 17 15 14 13
5 4 5 5 5 6 6 6 7 8 7 8 9 10 11 13 13 15 16 16 16 16 16 15 20 26 29 29 28 27 26 25 25 24 22 21 19 18 17 15 14 14 13 12 13 14 13 12 12 12 13 14 15 15 15 16 16 16 17 17 17 17 16 16 16 16 16 15 15 16 16 17 18 18 18 18 18 18 18 19 19 19 19 19 18 16 14
6 5 5 4 5 7 8 7 7 8 8 9 8 8 9 10 11 12 13 13 13 15 16 15 16 21 26 30 32 31 29 28 27 26 24 23 22 21 20 19 18 17 17 16 16 15 13 12 12 13 14 15 16 16 16 17 17 18 18 18 17 17 16 16 16 17 17 16 16 16 16 16 17 18 18 18 19 19 19 19 19 19 19 19 19 18 17
8 7 6 6 6 6 7 7 7 8 8 8 8 8 7 8 9 10 11 12 12 13 14 16 17 20 23 26 30 31 31 29 29 28 27 26 25 24 23 22 21 19 18 18 17 15 13 12 12 13 14 15 16 16 17 19 19 19 18 18 17 17 16 16 17 17 17 17 16 16 16 16 16 17 18 18 19 19 20 20 20 19 19 19 18 18 18
10 8 7 6 6 5 5 5 5 6 6 6 7 8 8 8 9 10 10 11 12 13 13 15 16 19 22 25 28 31 31 31 31 31 31 29 28 26 25 23 21 19 18 17 15 13 12 12 13 14 15 16 17 18 19 20 21 20 19 18 18 18 18 18 18 18 17 17 16 15 14 15 15 17 18 19 19 20 20 21 20 19 19 19 19 18 18
9 8 7 6 5 5 6 5 5 6 6 6 7 8 8 9 10 11 11 11 12 12 13 15 15 17 21 25 27 30 32 31 31 32 33 32 30 28 25 23 21 19 17 15 13 12 12 12 13 14 15 16 17 18 19 20 20 19 19 19 18 18 18 18 18 17 17 16 16 15 14 15 16 17 18 19 19 19 19 20 20 19 20 20 19 18 17
7 7 7 7 7 8 9 10 10 10 10 11 11 11 10 10 11 12 12 13 13 13 13 14 14 16 20 23 26 29 30 29 30 32 34 34 31 29 26 23 21 18 16 14 12 11 11 12 13 14 15 16 16 17 17 18 18 18 18 18 18 18 18 17 16 16 16 16 16 16 16 16 15 15 15 15 16 16 17 18 18 19 19 19 18 18 18
10 11 12 12 12 13 13 13 14 14 14 14 15 14 13 13 13 13 14 14 15 14 13 12 13 15 18 22 25 27 28 27 30 34 36 34 30 28 26 22 19 16 14 12 10 10 9 11 12 13 14 14 14 14 15 16 16 17 17 18 18 18 17 15 14 14 15 15 15 15 14 13 12 12 12 12 14 15 16 17 17 18 18 19 19 20 21
12 14 15 15 16 16 16 16 16 16 15 15 15 16 15 14 14 14 14 14 14 14 14 12 12 14 17 21 24 25 25 27 32 36 36 32 29 27 23 19 16 13 11 9 9 8 8 9 11 11 12 13 13 13 12 12 13 15 17 17 17 16 15 13 13 12 12 12 12 11 11 10 11 11 12 13 14 15 15 16 17 18 19 20 21 22 22
14 15 16 17 17 17 18 18 18 18 17 17 17 17 16 15 15 15 15 14 14 14 14 13 13 14 17 20 22 24 26 30 34 34 32 28 25 22 18 14 12 10 8 8 8 8 9 9 9 10 11 12 12 12 11 10 11 14 16 16 16 15 13 11 10 10 8 8 9 9 9 11 13 14 14 14 15 16 17 18 19 19 19 19 20 21 22
17 18 19 19 19 20 20 20 20 20 20 20 20 20 19 18 16 15 14 14 14 14 15 15 14 16 19 22 23 25 28 30 31 29 27 24 21 17 14 12 10 8 7 7 8 8 8 8 9 10 11 12 12 12 11 10 11 13 15 15 14 12 10 8 7 7 7 8 9 10 12 14 16 16 16 17 17 17 18 18 17 17 18 20 21 21 21
21 22 22 23 22 22 21 21 20 21 21 22 22 22 20 18 16 14 14 14 15 15 16 16 17 19 22 24 25 26 28 29 28 26 24 21 18 15 12 10 8 8 8 8 9 9 8 8 9 9 10 11 12 13 13 12 13 13 14 13 12 9 6 5 5 5 7 9 10 11 13 15 16 16 16 15 14 14 16 17 17 18 21 23 23 23 23
21 21 22 21 21 20 20 19 19 19 20 21 22 22 20 17 16 14 14 14 15 16 17 19 20 22 25 25 26 28 29 27 25 22 19 17 15 13 11 10 9 8 7 7 7 8 7 7 7 7 8 10 12 14 15 14 13 11 10 10 8 6 3 3 4 5 7 10 11 11 12 13 12 12 12 12 12 13 17 19 20 21 22 23 22 22 23
18 18 17 17 17 17 17 18 19 19 19 19 20 21 20 18 17 16 15 14 15 17 19 20 22 24 25 27 29 30 28 24 21 17 14 13 13 13 13 12 11 8 6 4 5 5 5 5 5 6 8 10 13 15 15 13 10 8 7 7 6 4 2 2 3 5 7 9 9 10 10 11 11 11 11 11 12 14 17 19 19 19 19 19 20 21 22
17 16 16 16 17 18 19 20 21 21 21 20 19 19 19 20 19 18 16 15 15 18 20 22 24 26 27 29 29 27 24 19 16 13 10 9 9 11 12 12 10 6 2 1 1 2 2 2 3 6 9 11 13 15 15 11 8 6 6 6 5 3 3 3 3 4 6 7 8 9 10 11 11 12 12 12 13 15 16 16 17 17 17 18 19 21 22
16 16 17 18 19 20 20 21 21 21 21 20 17 15 16 18 19 18 17 16 17 19 22 24 26 27 28 28 25 22 18 16 14 12 11 10 7 7 8 9 8 5 3 2 2 2 1 2 4 6 9 12 13 14 12 9 7 6 6 6 5 5 5 5 5 6 7 8 9 10 10 10 11 12 12 13 14 14 15 16 16 17 17 18 19 21 22
16 17 18 19 20 20 20 20 19 19 20 18 14 12 14 17 17 17 17 17 19 23 26 28 29 28 26 23 20 18 17 15 14 13 14 15 13 11 9 8 6 4 4 4 3 4 4 5 6 7 9 10 11 11 9 8 7 6 6 6 6 6 6 6 7 8 9 9 10 10 10 10 10 11 12 13 14 14 15 15 16 16 17 19 20 20 21
15 15 15 17 18 18 18 18 18 18 18 16 14 13 15 16 16 17 17 18 21 26 28 27 25 22 19 18 17 15 13 12 12 12 13 15 16 14 11 9 6 4 3 4 4 5 6 8 9 9 10 9 9 8 8 8 7 6 5 5 5 5 6 6 6 7 8 8 8 9 9 10 11 12 13 13 14 14 15 15 15 16 17 18 19 20 21
17 16 15 14 14 13 14 15 15 15 14 13 13 14 15 14 14 16 18 19 23 27 28 24 20 17 16 16 15 13 12 12 11 9 8 9 11 12 11 9 6 4 3 4 5 6 7 8 9 10 10 10 8 8 9 9 8 6 4 4 4 5 5 6 6 6 7 8 8 9 10 11 11 12 13 14 14 14 14 14 15 16 16 17 18 19 19
18 18 18 15 13 11 11 12 12 10 9 8 8 9 10 11 12 15 19 22 24 24 22 18 16 16 16 15 13 14 16 17 15 11 9 9 10 10 9 7 5 4 3 4 5 6 7 8 8 10 11 11 9 8 9 10 9 7 6 6 6 7 7 7 6 6 7 8 9 10 11 11 11 11 12 13 14 14 13 13 14 15 15 16 17 17 18
18 19 19 16 12 10 9 7 5 4 4 4 4 5 8 11 13 17 21 23 21 19 17 14 14 14 13 12 11 13 16 17 15 13 12 11 9 9 8 6 4 3 3 3 5 5 6 7 8 10 12 13 11 9 9 9 9 8 8 8 8 9 9 9 8 9 10 10 11 12 13 13 12 12 13 14 14 13 12 12 13 13 14 15 16 16 16
17 17 16 12 10 11 11 7 4 1 1 3 4 6 9 13 16 18 19 19 19 18 17 16 15 15 13 12 12 13 13 11 8 9 10 10 9 7 6 5 3 2 3 3 4 5 5 6 7 9 11 13 12 11 10 9 9 9 9 9 10 10 11 11 11 11 12 12 12 13 14 14 13 13 14 15 14 12 12 12 13 13 14 15 15 14 14
15 15 13 10 9 11 11 9 5 2 4 7 10 11 13 16 17 17 17 17 18 18 17 16 16 15 14 12 11 11 10 8 6 6 9 10 8 6 5 3 2 2 2 2 3 4 4 5 6 7 9 11 12 12 14 14 12 11 10 10 10 10 11 11 12 12 12 13 13 13 15 15 14 13 14 15 15 13 13 13 13 14 15 16 15 15 15
13 13 11 9 8 8 8 7 5 5 10 14 16 15 15 16 17 19 19 20 20 20 18 16 16 16 15 13 11 10 9 9 7 7 7 8 7 6 4 2 1 0 0 2 3 4 4 5 6 6 7 9 10 11 13 14 14 13 12 11 11 10 11 12 13 12 12 12 12 13 14 16 15 14 14 15 15 15 15 15 15 15 16 16 16 16 17
12 12 9 7 5 6 7 9 9 11 13 15 15 14 14 16 19 22 22 21 20 19 18 17 16 15 14 13 11 10 9 8 7 7 7 7 6 5 4 3 3 2 1 3 4 4 4 5 6 6 6 7 8 8 9 11 12 12 12 12 11 11 12 14 14 14 13 13 12 13 15 15 14 14 15 15 15 15 16 17 17 16 16 16 16 17 18
Wind_Direction
20 24 348 337 50 76 13 10 2 347 349 36 78 78 129 135 139 187 179 158 153 166 164 155 161 152 130 121 121 118 115 113 113 111 108 111 114 114 116 117 127 141 114 83 109 157 186 197 206 213 215 218 222 225 229 229 229 233 234 230 227 229 232 234 233 231 229 229 229 228 225 223 224 228 229 229 229 229 229 230 232 235 238 241 245 250 257
12 25 9 350 44 63 19 9 13 357 358 62 82 72 71 79 85 127 131 121 96 124 143 142 145 140 126 120 120 117 114 112 111 110 108 109 112 114 116 120 127 127 110 94 96 113 164 186 193 201 208 212 215 217 222 225 227 227 225 223 224 228 232 233 232 232 233 232 231 230 227 225 226 229 231 231 231 232 234 235 238 242 244 244 244 247 251
9 10 7 352 29 61 36 6 5 359 357 37 68 83 88 75 71 91 106 102 80 115 132 127 130 131 125 123 123 117 113 113 111 110 107 107 111 110 109 113 121 124 121 115 106 99 116 153 173 186 197 203 205 207 212 216 218 217 213 215 219 226 232 235 232 231 232 233 232 230 229 228 229 228 228 230 232 235 236 237 241 246 249 250 248 248 250
48 1 356 335 354 43 36 11 360 350 343 12 57 30 62 113 117 110 107 115 139 150 133 124 130 136 132 130 128 121 117 116 112 109 108 108 109 107 104 104 110 121 129 125 120 115 111 127 154 171 183 193 199 204 208 209 208 210 210 212 216 223 230 234 231 227 228 230 229 229 228 228 227 226 227 230 233 236 238 239 241 245 250 253 253 252 253
145 332 346 326 2 31 14 344 342 326 307 352 58 25 9 99 131 133 141 160 160 144 134 129 135 140 136 135 133 129 127 122 115 112 110 111 113 111 107 104 101 106 113 113 116 122 122 125 140 153 165 177 187 194 198 194 185 186 193 200 208 216 222 226 228 226 226 228 229 230 230 229 228 228 230 233 234 235 237 239 240 243 248 252 255 256 257
225 302 9 38 41 48 284 301 333 332 333 71 71 43 4 7 94 116 111 122 133 138 141 142 144 144 143 143 142 140 136 130 125 122 119 118 121 120 115 111 105 102 104 107 110 111 113 120 126 127 138 160 175 181 185 187 183 177 170 172 185 199 204 207 212 215 218 222 224 227 228 228 229 229 230 232 233 234 237 238 240 243 245 248 251 253 255
136 327 58 66 54 228 254 299 326 5 81 87 80 54 21 9 38 91 93 99 121 127 130 137 140 142 144 144 143 142 140 136 132 128 126 125 124 123 121 117 112 108 105 105 106 104 103 107 110 105 105 120 132 127 132 156 174 181 179 172 172 177 183 190 198 203 204 204 208 214 217 221 227 228 227 228 230 231 234 237 240 242 243 245 246 247 249
69 48 79 120 219 254 302 323 319 335 29 60 64 45 15 358 5 70 88 77 85 100 112 126 133 136 137 135 138 143 143 140 134 128 127 131 129 125 123 119 116 115 111 106 104 105 104 101 100 100 98 100 107 107 109 118 120 119 139 162 164 166 176 184 190 194 195 196 201 207 212 215 221 223 222 222 222 223 226 228 233 238 241 243 244 246 248
109 102 103 154 209 292 325 329 319 331 324 309 88 84 358 351 12 84 100 85 84 99 111 121 126 129 126 119 132 147 146 140 136 128 125 132 135 132 128 123 119 117 112 105 102 105 110 107 98 94 94 96 103 106 106 107 105 104 114 124 124 131 149 162 164 163 169 189 202 207 212 216 221 226 226 222 219 219 220 221 224 232 240 243 246 247 247
83 96 76 55 90 214 248 267 286 320 318 284 183 109 6 349 76 112 108 106 111 115 118 124 127 127 120 109 151 155 149 144 141 133 126 130 135 134 130 127 125 124 121 114 108 107 110 111 106 98 94 94 102 105 100 95 97 100 107 114 114 113 116 117 127 147 161 193 210 207 210 216 220 227 232 233 232 230 229 228 229 234 240 243 246 250 249
45 94 97 121 168 213 248 260 288 328 336 316 106 69 350 242 168 134 121 123 128 128 130 134 133 125 117 163 180 161 153 151 150 143 136 134 136 135 131 130 131 133 133 128 122 117 113 113 116 116 106 95 100 106 102 96 96 97 102 111 117 117 114 105 101 122 143 156 169 182 202 213 215 223 236 243 245 243 242 242 239 239 244 245 245 249 250
69 97 96 180 196 251 271 263 298 330 343 8 78 51 283 208 180 165 152 148 148 146 145 146 152 185 182 171 171 163 156 156 156 151 145 142 143 143 140 138 138 141 144 144 142 138 129 126 129 136 142 124 98 101 101 102 107 105 105 112 119 118 121 120 113 115 127 141 144 142 157 180 189 214 248 253 247 245 247 249 247 248 253 251 248 251 251
74 91 98 264 260 251 247 278 310 328 349 42 91 213 221 182 178 182 177 166 160 159 161 160 168 217 192 163 159 159 158 158 155 152 149 147 148 149 147 146 146 150 155 157 159 160 154 151 157 172 197 234 261 263 240 176 145 121 112 119 131 135 142 150 147 141 144 160 164 154 150 155 159 154 139 136 203 231 243 247 250 254 256 254 252 251 248
41 107 112 25 289 250 259 305 318 334 15 127 197 204 173 176 181 185 186 180 171 168 171 172 171 174 164 158 156 158 162 161 155 153 154 154 155 157 155 153 154 160 167 173 178 179 176 179 192 208 231 251 256 251 247 238 220 180 141 148 161 166 172 179 182 181 182 187 186 176 168 166 172 179 172 160 151 149 150 150 173 222 238 244 249 247 243
79 59 62 60 237 263 335 341 333 359 65 197 181 132 123 173 183 183 184 188 186 180 175 172 167 158 156 157 159 161 163 163 158 158 162 163 163 165 165 165 167 173 183 196 204 204 199 203 214 224 239 253 255 250 247 241 238 239 224 204 194 189 195 200 196 193 197 202 207 209 201 194 200 206 203 192 180 173 167 159 151 157 183 211 237 251 249
104 75 81 193 222 293 342 355 359 147 109 144 150 132 133 157 171 178 181 183 189 186 170 156 155 156 155 158 162 162 163 164 162 163 167 169 169 168 169 172 176 182 195 206 212 217 221 227 236 242 247 256 260 260 256 248 246 249 248 240 229 224 229 225 211 207 207 207 212 217 217 215 216 213 202 190 186 183 178 178 178 178 184 194 193 168 165
154 179 224 248 312 350 2 49 122 123 110 111 133 146 146 150 160 170 170 166 171 177 172 163 162 163 161 163 166 166 165 165 166 167 169 172 174 172 171 172 174 180 192 204 213 219 226 236 245 252 256 258 259 259 260 263 265 266 263 260 248 240 240 236 228 227 225 223 223 224 224 223 220 214 205 193 184 179 179 183 190 195 196 195 190 183 187
241 206 279 316 14 26 42 92 116 118 113 108 105 128 148 157 163 166 166 166 168 174 178 175 171 169 169 169 169 170 169 168 170 171 171 174 180 181 176 173 175 180 190 205 216 219 224 234 244 253 257 256 254 255 258 264 270 272 269 265 260 254 251 245 240 241 243 244 243 243 245 246 242 235 228 217 204 192 184 185 190 194 196 196 196 199 210
84 6 330 360 47 49 57 95 119 126 122 115 100 98 128 155 168 177 183 184 183 184 185 179 172 171 174 173 171 172 172 172 174 175 175 179 184 186 184 180 183 194 202 208 214 218 222 228 233 242 250 253 253 253 254 257 262 266 270 270 266 262 262 260 255 252 253 256 257 257 257 258 258 256 252 246 242 234 219 209 204 204 207 211 214 218 223
125 250 306 56 86 78 74 88 103 121 132 137 135 120 115 125 151 188 197 196 191 186 183 182 179 177 178 178 176 175 176 177 178 180 184 188 189 191 193 193 198 211 215 212 214 217 219 220 224 232 240 247 251 254 257 259 260 262 267 271 272 270 267 267 264 260 258 258 259 260 262 262 262 262 260 257 254 253 250 244 237 231 232 237 240 243 244
350 313 290 115 97 75 73 81 79 93 141 156 154 147 145 144 143 166 184 191 193 188 186 188 187 180 177 180 181 178 179 182 184 187 191 195 197 202 209 217 224 227 227 225 221 217 216 219 223 229 238 246 252 255 260 263 266 267 269 271 274 275 274 274 272 269 266 264 262 261 261 261 263 267 269 267 263 262 263 262 259 255 253 254 257 261 263
298 252 180 166 146 96 102 91 75 72 102 159 166 162 161 163 163 166 171 176 184 188 189 190 185 177 175 181 186 188 190 193 197 200 201 202 205 215 231 243 242 237 236 238 237 234 234 237 245 254 257 255 254 255 259 263 268 272 273 273 274 276 278 280 278 275 274 274 273 271 266 264 261 259 262 268 270 268 268 268 269 269 267 265 265 266 268
235 213 184 178 168 154 149 121 90 82 84 113 152 162 170 175 175 175 179 181 184 187 190 192 192 191 190 192 197 202 204 206 209 211 213 215 220 230 238 239 238 239 241 245 250 252 252 261 285 296 289 268 254 253 255 260 267 274 280 283 284 285 287 290 290 288 285 281 278 276 275 273 269 262 256 256 260 265 268 268 270 272 273 273 272 272 272
253 237 194 187 180 172 174 175 176 164 112 99 124 139 177 193 190 187 189 193 195 197 199 201 206 211 210 207 209 211 211 211 214 216 222 234 244 246 238 233 237 247 250 249 249 249 252 271 295 301 292 265 249 248 254 261 269 278 287 292 296 297 298 298 297 295 292 288 284 281 279 279 279 275 270 265 263 264 268 269 270 272 275 275 273 271 271
292 263 210 202 207 201 207 228 247 253 257 257 256 258 250 228 213 204 202 203 203 205 207 207 210 216 220 219 219 219 218 219 221 226 234 243 244 239 233 232 240 250 250 244 239 240 254 282 297 300 292 270 253 251 255 262 272 282 289 294 299 303 303 302 299 295 291 289 287 287 286 286 286 287 287 285 282 280 280 279 278 276 277 279 278 274 270
279 250 224 227 225 213 220 239 249 255 258 257 258 261 260 257 251 237 228 224 219 214 213 212 213 216 221 224 225 225 226 227 228 231 235 234 229 228 232 238 242 245 245 243 243 251 272 291 299 298 288 273 264 261 264 271 279 286 291 295 299 302 303 302 301 298 294 291 289 288 289 291 292 293 294 294 293 291 291 291 291 288 285 284 283 282 280
266 259 249 252 253 249 247 248 249 252 255 255 254 254 253 253 254 251 245 241 236 227 220 216 215 215 219 226 229 228 227 227 225 223 224 225 227 230 236 239 239 238 242 249 256 268 283 291 294 291 283 275 274 275 279 286 291 293 294 295 297 299 299 298 298 296 293 292 291 290 289 289 290 292 292 292 294 295 295 296 298 299 299 297 294 292 292
258 266 266 268 277 276 265 259 259 260 261 263 262 258 255 255 256 255 252 248 247 245 236 226 220 217 217 221 225 225 223 221 219 219 219 220 224 228 232 234 234 235 239 248 257 267 277 284 289 290 284 278 277 280 285 291 293 294 294 294 294 295 295 294 294 293 291 289 289 290 290 290 289 288 288 289 290 292 293 294 297 299 301 302 301 300 300
251 257 258 262 282 290 281 274 274 276 279 280 275 269 265 262 259 258 257 255 253 251 248 241 232 225 220 219 220 222 222 221 222 224 223 220 219 223 226 227 228 229 233 240 249 258 267 276 283 285 282 279 279 282 287 290 292 293 294 294 294 293 292 292 291 291 290 289 288 288 290 291 290 288 286 286 287 289 291 293 294 296 298 300 301 303 303
250 249 252 259 278 287 286 284 284 286 288 289 288 284 275 268 265 263 261 260 259 253 247 242 237 232 226 221 218 218 221 226 230 230 226 219 217 219 221 222 222 223 226 233 242 251 260 269 275 278 279 281 282 284 287 289 291 293 296 295 293 292 291 291 292 291 291 291 289 289 289 290 289 288 287 287 287 288 289 291 292 294 296 298 301 305 308
256 247 253 266 272 274 274 274 279 285 290 293 296 297 290 280 278 276 271 266 265 263 258 252 246 242 238 232 225 220 220 223 227 227 222 216 215 217 220 224 226 228 229 232 236 244 254 263 270 274 279 282 282 283 287 289 292 295 296 294 291 291 291 292 292 292 292 293 293 292 292 289 287 287 287 287 288 289 290 291 293 296 298 299 299 302 306
269 263 261 261 257 250 246 253 266 272 276 286 296 302 303 298 292 290 287 281 274 269 265 261 256 249 245 241 235 228 223 221 222 221 216 211 211 214 218 221 226 230 232 231 233 240 250 260 269 275 279 280 281 283 287 289 290 292 292 290 290 292 292 293 294 295 296 297 296 293 290 288 287 287 288 288 290 293 294 296 297 297 298 298 299 302 306
279 275 266 258 256 259 261 269 280 282 282 289 294 295 297 301 302 303 304 300 291 279 266 259 256 251 245 241 239 235 230 223 217 213 209 206 207 210 212 215 219 223 226 228 231 238 249 259 268 273 277 280 283 286 287 287 287 288 289 289 290 290 290 292 295 297 299 300 300 297 295 292 290 289 290 292 295 296 297 297 298 297 297 299 301 304 305
281 280 276 277 284 288 285 285 287 289 288 289 290 289 289 292 297 303 306 305 302 295 281 266 256 249 246 245 243 240 234 225 214 208 205 203 204 205 207 209 212 216 220 224 230 242 254 264 269 273 278 283 286 287 285 283 283 284 286 286 286 285 287 291 294 296 298 300 301 301 301 300 299 299 300 301 301 301 299 299 301 302 302 302 301 300 298
279 280 279 278 281 284 285 284 285 287 288 287 285 285 285 284 285 291 297 299 299 298 292 277 261 251 248 245 242 241 238 231 219 209 202 198 197 200 201 204 207 211 215 221 233 248 261 266 270 276 283 286 287 287 286 285 284 283 283 282 282 285 289 293 295 297 298 299 299 301 305 309 311 312 311 306 301 301 303 305 307 308 307 305 303 302 301
278 279 278 277 277 278 279 280 280 281 283 283 282 280 280 279 277 278 283 289 293 293 289 276 259 249 247 244 241 237 230 219 210 203 197 193 194 196 198 202 208 215 222 233 244 252 254 258 269 282 289 290 291 292 292 291 289 285 281 281 283 287 292 293 292 292 295 298 301 305 309 308 300 296 299 302 301 303 305 307 308 309 308 306 305 307 309
274 278 280 280 280 279 278 278 279 278 278 279 280 280 280 280 278 277 279 282 284 285 280 270 256 246 241 237 232 224 211 201 196 193 190 187 187 190 194 200 211 222 234 243 246 246 246 252 268 283 290 294 297 296 293 294 293 287 282 283 285 288 289 286 282 284 291 297 300 300 298 292 287 285 289 294 295 297 300 303 305 308 307 305 305 309 312
274 277 281 284 284 283 282 281 279 278 277 277 278 279 281 282 281 282 282 282 281 276 268 259 249 237 228 223 219 212 203 197 194 193 191 189 190 196 204 211 219 231 240 240 240 245 252 261 274 286 293 298 298 295 294 295 290 283 282 285 287 289 288 284 285 296 303 297 290 287 284 282 282 285 286 286 288 293 297 300 304 307 305 303 305 307 309
279 279 280 281 282 282 283 282 279 277 276 277 277 277 277 278 278 277 277 280 279 270 255 244 235 226 220 216 211 205 200 197 197 198 198 198 200 206 211 214 222 237 246 249 252 257 263 272 284 295 300 300 298 297 297 294 288 284 286 289 289 288 287 288 296 305 299 287 283 284 283 282 285 288 291 294 300 303 298 294 296 299 300 301 303 303 303
284 282 281 280 279 279 279 280 281 279 277 275 274 273 271 271 270 267 268 274 273 260 244 233 227 222 218 214 209 203 199 197 196 195 193 192 194 198 199 197 203 215 230 243 254 262 268 279 292 299 300 300 301 302 301 297 294 294 295 292 287 283 282 295 308 307 293 286 287 293 295 297 301 306 307 309 311 306 300 299 302 305 305 306 306 305 303
289 288 285 281 278 278 280 283 287 288 285 279 274 269 265 261 259 257 259 264 262 249 235 229 227 224 220 217 212 204 196 190 187 187 188 191 192 193 192 190 189 193 209 232 251 261 267 279 292 297 299 300 303 305 305 304 301 300 300 299 296 288 274 288 305 303 293 291 296 304 311 315 318 318 316 313 310 307 308 311 314 314 313 311 310 307 305
294 291 287 282 281 282 286 289 292 293 291 287 279 268 259 253 251 251 252 253 250 240 228 223 223 220 213 206 199 190 183 181 182 182 181 185 189 192 192 186 176 165 167 264 269 253 258 279 299 304 305 304 304 306 308 308 301 298 305 310 311 304 290 287 292 295 296 303 310 318 322 324 321 319 319 318 317 317 320 321 320 319 317 315 312 311 309
299 291 286 285 285 286 288 291 292 293 293 291 285 269 253 245 244 246 246 242 235 228 220 213 208 202 194 188 184 180 178 179 178 170 161 158 160 172 182 176 158 126 81 53 73 90 49 2 338 322 314 310 308 311 313 310 301 303 311 314 312 312 313 314 312 313 316 320 322 322 323 323 319 318 319 321 321 323 324 323 322 322 321 318 316 316 316
310 297 289 287 287 287 288 289 289 289 290 289 281 264 248 240 235 237 239 234 225 219 213 204 195 188 184 183 185 185 181 177 175 173 169 163 156 153 161 165 151 116 77 62 65 60 37 13 355 343 334 327 324 324 324 318 311 310 310 308 308 312 316 318 319 322 324 326 327 326 326 326 325 324 325 325 325 324 325 325 324 323 321 320 320 321 321
331 318 304 295 291 288 287 286 286 285 285 280 267 252 245 240 233 232 235 231 218 208 200 192 186 184 186 188 188 187 186 187 190 191 184 173 164 161 163 165 157 125 79 56 46 37 25 12 1 357 355 350 343 339 339 336 330 323 318 317 321 326 329 329 330 331 332 334 336 337 336 335 335 334 334 333 331 329 329 328 325 323 323 324 325 325 325
348 343 331 316 304 295 291 290 289 285 280 272 260 246 241 240 236 231 226 219 209 201 195 192 193 194 194 190 186 184 183 182 179 173 164 158 157 158 158 155 145 122 80 53 41 31 20 12 8 6 5 0 353 350 351 352 350 350 359 6 3 357 351 344 341 343 346 348 351 351 348 345 344 343 341 338 336 334 333 331 328 328 329 330 330 330 331
347 347 343 335 325 315 306 300 292 279 268 266 260 244 235 237 233 217 204 199 196 193 191 194 197 195 191 189 188 182 173 165 157 147 141 142 145 149 151 147 135 118 85 52 43 35 23 16 13 11 8 5 1 358 357 359 2 10 21 22 18 14 8 359 357 3 6 5 3 0 357 354 353 350 345 342 340 338 337 336 336 336 336 336 335 336 338
341 345 347 344 342 344 340 323 298 269 249 246 241 224 218 216 206 190 182 180 178 175 171 175 180 180 177 176 178 174 168 160 153 151 154 154 150 148 148 143 131 117 86 55 48 41 28 20 17 14 12 10 9 7 1 357 1 11 20 19 16 13 10 5 5 9 10 7 2 358 356 358 360 357 353 350 348 345 342 341 341 342 343 343 341 341 343
342 349 353 355 5 13 10 360 355 17 169 199 203 203 199 190 178 171 170 171 168 163 159 159 161 161 160 159 163 167 169 166 160 154 154 153 151 150 150 146 135 117 89 64 52 42 27 16 13 14 15 15 16 18 16 8 2 5 11 11 7 5 2 359 359 0 0 359 355 349 346 347 352 354 355 355 355 350 345 343 344 346 347 346 345 345 346
351 0 8 17 24 21 11 3 8 54 154 175 179 182 182 174 165 162 164 165 160 153 148 147 148 153 159 164 167 168 169 172 174 164 155 154 157 165 169 161 135 109 83 53 37 30 18 4 1 10 17 18 19 23 25 22 16 10 7 4 0 358 355 354 353 354 352 350 349 346 343 341 342 346 352 356 356 352 346 343 343 345 345 345 345 347 348
2 13 24 31 27 20 17 22 47 109 141 147 147 150 155 156 154 153 153 149 144 143 145 149 153 159 164 170 173 174 173 174 174 171 167 166 169 174 182 189 195 203 353 2 8 8 2 354 356 8 16 16 15 18 22 22 19 13 7 2 357 355 353 352 350 348 345 345 345 346 345 342 339 341 347 353 352 348 344 341 341 343 344 343 343 345 348
12 22 31 37 39 48 61 73 91 115 131 136 135 134 133 134 138 142 143 142 142 145 149 155 161 166 170 174 176 177 179 180 176 168 166 167 171 179 197 219 235 250 295 337 347 345 344 350 358 2 3 1 1 5 11 15 15 11 8 4 1 357 356 356 352 345 342 344 346 345 344 342 337 334 337 342 345 343 341 340 341 344 346 344 343 343 346